FW5910 Weather Reports


time (UTC)temp
F
wind
direction
speed
knots
gust
knots
rain 1hr
in
rain 24hr
in
rain mn
in
humidity
%
barometer
mb
20260901135034 47 309 0.0 0.0 0.00 0.00 0.00 68 1012.2
20260901134532 47 309 0.0 0.0 0.00 0.00 0.00 69 1012.0
20260901134032 47 309 0.0 0.0 0.00 0.00 0.00 68 1011.9
20260901133030 47 309 0.0 0.0 0.00 0.00 0.00 69 1011.8
20260901132531 47 309 0.0 0.0 0.00 0.00 0.00 71 1011.8
20260901132032 47 309 0.0 0.0 0.00 0.00 0.00 72 1011.9
20260901131531 47 309 0.0 0.0 0.00 0.00 0.00 72 1011.8
20260901131032 47 309 0.0 0.0 0.00 0.00 0.00 70 1011.8
20260901130532 47 309 0.0 0.0 0.00 0.00 0.00 71 1011.7
20260901125531 47 309 0.0 0.0 0.00 0.00 0.00 70 1011.5
20260901125030 47 309 0.0 0.0 0.00 0.00 0.00 70 1011.6
20260901124532 47 309 0.0 0.0 0.00 0.00 0.00 71 1011.6
20260901124029 47 309 0.0 0.0 0.00 0.00 0.00 70 1011.6
20260901123525 47 309 0.0 0.0 0.00 0.00 0.00 70 1011.6
20260901123018 47 309 0.0 0.0 0.00 0.00 0.00 69 1011.5
20260901122518 47 309 0.0 0.0 0.00 0.00 0.00 69 1011.5
20260901122016 47 309 0.0 0.0 0.00 0.00 0.00 68 1011.6
20260901121515 48 309 0.0 0.0 0.00 0.00 0.00 68 1011.6
20260901121017 48 309 0.0 0.0 0.00 0.00 0.00 69 1011.6
20260901120515 48 309 0.0 0.0 0.00 0.00 0.00 68 1011.6
20260901120012 48 309 0.0 0.0 0.00 0.00 0.00 68 1011.7
20260901115512 48 309 0.0 0.0 0.00 0.00 0.00 67 1011.7
20260901115012 48 309 0.0 0.0 0.00 0.00 0.00 67 1011.6
20260901114510 48 309 0.0 0.0 0.00 0.00 0.00 67 1011.6
20260901114007 48 309 0.0 0.0 0.00 0.00 0.00 67 1011.6
20260901113509 48 309 0.0 0.0 0.00 0.00 0.00 67 1011.6
20260901113011 48 310 0.0 0.0 0.00 0.00 0.00 68 1011.6
20260901111504 48 310 0.0 0.0 0.00 0.00 0.00 67 1011.7
20260901111003 49 309 0.0 0.0 0.00 0.00 0.00 67 1011.6
20260901110502 49 309 0.0 0.0 0.00 0.00 0.00 66 1011.6
20260901110003 49 309 0.0 0.0 0.00 0.00 0.00 67 1011.5
20260901105504 49 309 0.0 0.0 0.00 0.00 0.00 67 1011.7
20260901105002 49 309 0.0 0.0 0.00 0.00 0.00 67 1011.6
20260901104504 49 310 0.0 0.0 0.00 0.00 0.00 67 1011.6
20260901103004 49 309 0.0 0.0 0.00 0.00 0.00 67 1011.5
20260901102005 49 309 0.9 2.6 0.00 0.00 0.00 68 1011.6
20260901101504 49 309 0.9 2.6 0.00 0.00 0.00 69 1011.6
20260901101003 49 292 0.0 0.0 0.00 0.00 0.00 70 1011.6
20260901100503 49 292 0.0 0.0 0.00 0.00 0.00 70 1011.7
20260901100004 49 292 0.0 0.0 0.00 0.00 0.00 69 1011.6
20260901095503 49 292 0.0 0.0 0.00 0.00 0.00 70 1011.7
20260901095002 49 293 0.0 0.0 0.00 0.00 0.00 69 1011.8
20260901094503 49 292 0.0 0.0 0.00 0.00 0.00 68 1011.8
20260901094002 50 293 0.0 0.0 0.00 0.00 0.00 70 1011.8
20260901093503 50 292 0.0 0.0 0.00 0.00 0.00 70 1011.8
20260901091503 51 291 0.0 0.0 0.00 0.00 0.00 68 1011.8
20260901091002 51 291 0.0 0.0 0.00 0.00 0.00 67 1011.8
20260901090506 51 291 0.0 0.0 0.00 0.00 0.00 67 1011.7
20260901090006 52 291 0.0 0.0 0.00 0.00 0.00 70 1011.7
20260901085506 52 291 0.0 0.0 0.00 0.00 0.00 69 1011.7
20260901085004 51 291 0.0 0.0 0.00 0.00 0.00 67 1011.8
20260901084506 51 291 0.0 0.0 0.00 0.00 0.00 66 1011.9
20260901084004 51 290 0.0 1.7 0.00 0.00 0.00 64 1011.9
20260901083503 52 290 0.9 2.6 0.00 0.00 0.00 64 1011.8
20260901082507 52 282 0.0 0.9 0.00 0.00 0.00 61 1011.9
20260901082005 52 283 0.0 0.9 0.00 0.00 0.00 60 1011.9
20260901081505 52 283 0.0 0.0 0.00 0.00 0.00 61 1011.9
20260901080503 52 283 0.0 0.9 0.00 0.00 0.00 61 1012.0
20260901075958 52 283 0.0 1.7 0.00 0.00 0.00 62 1012.0
20260901075453 53 283 0.9 1.7 0.00 0.00 0.00 63 1011.9
20260901074449 53 283 0.0 0.9 0.00 0.00 0.00 64 1012.0
20260901073450 53 283 0.0 0.9 0.00 0.00 0.00 63 1012.1
20260901072950 54 284 0.0 0.0 0.00 0.00 0.00 64 1012.0
20260901072445 54 284 0.0 0.9 0.00 0.00 0.00 64 1012.0
20260901071948 54 284 0.0 0.9 0.00 0.00 0.00 64 1012.0
20260901071443 54 284 0.0 1.7 0.00 0.00 0.00 65 1012.0
20260901070942 54 284 0.0 1.7 0.00 0.00 0.00 66 1012.1
20260901070440 54 284 0.0 0.0 0.00 0.00 0.00 66 1012.1
20260901065941 54 284 0.0 0.0 0.00 0.00 0.00 64 1012.1
20260901065440 54 284 0.0 0.0 0.00 0.00 0.00 63 1012.0
20260901064941 54 284 0.0 0.0 0.00 0.00 0.00 61 1012.0
20260901064436 54 284 0.0 1.7 0.00 0.00 0.00 60 1012.0
20260901063935 54 284 0.0 1.7 0.00 0.00 0.00 61 1012.0
20260901063431 53 16 0.0 0.0 0.00 0.00 0.00 76 1012.0
20260901062932 53 16 0.0 0.0 0.00 0.00 0.00 76 1012.0
20260901062430 53 16 0.0 0.0 0.00 0.00 0.00 77 1012.1
20260901061430 53 16 0.0 0.0 0.00 0.00 0.00 77 1012.5
20260901060424 54 16 0.0 0.0 0.00 0.00 0.00 79 1012.4
20260901055916 54 16 0.0 0.0 0.00 0.00 0.00 76 1012.5
20260901054904 55 16 0.0 0.0 0.00 0.00 0.00 73 1012.7
20260901054404 55 16 0.0 0.0 0.00 0.00 0.00 72 1012.8
20260901053905 55 16 0.0 0.0 0.00 0.00 0.00 71 1012.7
20260901052907 56 16 0.0 0.0 0.00 0.00 0.00 70 1012.7
20260901052403 56 16 0.0 0.0 0.00 0.00 0.00 71 1012.7
20260901051404 57 16 0.0 0.0 0.00 0.00 0.00 69 1012.8
20260901050403 57 16 0.0 0.0 0.00 0.00 0.00 65 1012.7
20260901045902 57 16 0.0 0.0 0.00 0.00 0.00 66 1012.8
20260901045405 57 16 0.0 0.0 0.00 0.00 0.00 65 1012.9
20260901044905 57 16 0.0 0.0 0.00 0.00 0.00 68 1013.0
20260901044407 58 16 0.0 0.0 0.00 0.00 0.00 69 1013.0
20260901043904 58 16 0.0 0.0 0.00 0.00 0.00 68 1012.9
20260901043406 58 16 0.0 0.0 0.00 0.00 0.00 72 1013.0
20260901042904 58 16 0.0 0.0 0.00 0.00 0.00 73 1013.0
20260901042404 59 16 0.0 0.0 0.00 0.00 0.00 75 1013.1
20260901041905 59 16 0.0 0.0 0.00 0.00 0.00 75 1013.1
20260901041404 59 16 0.0 0.0 0.00 0.00 0.00 74 1013.1
20260901040905 59 17 0.0 0.0 0.00 0.00 0.00 74 1013.1
20260901040406 60 17 0.0 0.0 0.00 0.00 0.00 72 1013.1
20260901035903 60 17 0.0 0.0 0.00 0.00 0.00 71 1013.1
20260901035403 61 17 0.0 0.0 0.00 0.00 0.00 69 1013.1
20260901034906 61 17 0.0 0.0 0.00 0.00 0.00 68 1013.0
20260901034407 62 17 0.0 0.0 0.00 0.00 0.00 69 1013.0
20260901033905 63 17 0.0 0.0 0.00 0.00 0.00 68 1012.9
20260901033405 63 17 0.0 0.0 0.00 0.00 0.00 66 1012.9
20260901032905 63 17 0.0 0.0 0.00 0.00 0.00 63 1012.9
20260901032405 64 16 0.0 0.0 0.00 0.00 0.00 64 1013.0
20260901031903 64 17 0.0 0.0 0.00 0.00 0.00 60 1012.9
20260901031404 65 16 0.0 0.0 0.00 0.00 0.00 60 1012.9
20260901030903 65 17 0.0 0.0 0.00 0.00 0.00 59 1012.8
20260901030403 66 17 0.0 0.0 0.00 0.00 0.00 59 1012.9
20260901025902 66 17 0.0 0.0 0.00 0.00 0.00 59 1012.8
20260901024903 67 16 0.0 0.0 0.00 0.00 0.00 53 1012.7
20260901024403 67 17 0.0 0.0 0.00 0.00 0.00 53 1012.7
20260901023903 67 16 0.0 0.0 0.00 0.00 0.00 49 1012.7
20260901022903 68 16 0.0 0.0 0.00 0.00 0.00 46 1012.5
20260901022403 68 16 0.0 0.9 0.00 0.00 0.00 46 1012.5
20260901021907 69 16 0.0 0.9 0.00 0.00 0.00 45 1012.5
20260901020909 70 17 0.0 0.9 0.00 0.00 0.00 43 1012.5
20260901015405 71 51 0.0 1.7 0.00 0.00 0.00 45 1012.6
20260901014904 71 226 0.0 0.0 0.00 0.00 0.00 40 1012.6
20260901014402 71 226 0.0 0.0 0.00 0.00 0.00 40 1012.7
20260901013905 71 226 0.0 0.0 0.00 0.00 0.00 40 1012.8
20260901013402 72 226 0.0 0.0 0.00 0.00 0.00 39 1012.8
20260901012905 72 251 0.0 0.9 0.00 0.00 0.00 39 1012.8
20260901010903 74 249 0.9 4.3 0.00 0.00 0.00 37 1012.9
20260901010401 74 254 0.9 4.3 0.00 0.00 0.00 37 1012.8
20260901005900 74 226 0.9 4.3 0.00 0.00 0.00 38 1012.8
20260901005400 74 174 0.9 4.3 0.00 0.00 0.00 36 1013.0
20260901004356 75 218 0.9 4.3 0.00 0.00 0.00 35 1013.0
20260901003855 75 147 0.0 3.5 0.00 0.00 0.00 35 1013.0
20260901003354 75 199 0.0 3.5 0.00 0.00 0.00 35 1013.1
20260901002854 76 227 0.0 3.5 0.00 0.00 0.00 36 1013.2
20260901002358 76 155 0.9 4.3 0.00 0.00 0.00 35 1013.2
20260901001852 77 225 0.9 4.3 0.00 0.00 0.00 34 1013.3
20260901001349 77 192 0.9 2.6 0.00 0.00 0.00 34 1013.4
20260901000850 76 179 0.9 4.3 0.00 0.00 0.00 35 1013.4
20260901000347 76 198 0.9 4.3 0.00 0.00 0.00 35 1013.4
20260831235848 76 232 0.9 3.5 0.00 0.00 0.00 37 1013.6
20260831235346 76 161 0.9 3.5 0.00 0.00 0.00 35 1013.6
20260831234345 76 278 0.9 3.5 0.00 0.00 0.00 35 1013.7
20260831233847 76 236 0.9 3.5 0.00 0.00 0.00 36 1013.7
20260831233345 77 202 0.9 2.6 0.00 0.00 0.00 35 1013.7
20260831232840 77 220 0.9 1.7 0.00 0.00 0.00 35 1013.8
20260831232344 78 272 0.9 2.6 0.00 0.00 0.00 36 1013.8
20260831231842 78 232 0.9 2.6 0.00 0.00 0.00 34 1013.8
20260831231340 78 46 0.9 5.2 0.00 0.00 0.00 34 1013.8
20260831230842 79 138 0.9 5.2 0.00 0.00 0.00 32 1013.9
20260831230345 80 270 0.9 3.5 0.00 0.00 0.00 32 1014.0
20260831225343 80 331 0.9 2.6 0.00 0.00 0.00 32 1014.0
20260831224341 80 174 0.9 3.5 0.00 0.00 0.00 32 1014.1
20260831223840 79 229 0.9 3.5 0.00 0.00 0.00 33 1014.1
20260831223340 79 250 0.9 3.5 0.00 0.00 0.00 33 1014.1
20260831222837 78 238 0.9 5.2 0.00 0.00 0.00 35 1014.0
20260831222337 77 227 1.7 5.2 0.00 0.00 0.00 34 1014.1
20260831221837 77 215 1.7 4.3 0.00 0.00 0.00 35 1014.1
20260831221337 77 37 1.7 6.1 0.00 0.00 0.00 35 1014.2
20260831215833 76 72 1.7 5.2 0.00 0.00 0.00 40 1014.3
20260831214834 77 336 0.9 2.6 0.00 0.00 0.00 36 1014.5
20260831214333 77 75 0.9 2.6 0.00 0.00 0.00 38 1014.5
20260831213832 78 9 0.0 1.7 0.00 0.00 0.00 38 1014.6
20260831213334 77 222 0.0 1.7 0.00 0.00 0.00 37 1014.6
20260831212832 76 94 0.9 3.5 0.00 0.00 0.00 41 1014.9
20260831212333 74 57 2.6 6.1 0.00 0.00 0.00 40 1014.9
20260831211333 76 76 0.9 4.3 0.00 0.00 0.00 38 1015.1
20260831210832 76 309 0.9 3.5 0.00 0.00 0.00 37 1015.2
20260831210331 75 52 0.9 3.5 0.00 0.00 0.00 39 1015.3
20260831205834 75 30 1.7 4.3 0.00 0.00 0.00 42 1015.4
20260831205330 75 128 0.9 4.3 0.00 0.00 0.00 38 1015.4
20260831204832 76 333 0.9 2.6 0.00 0.00 0.00 37 1015.5
20260831204333 76 211 0.9 2.6 0.00 0.00 0.00 39 1015.6
20260831203831 74 76 1.7 6.1 0.00 0.00 0.00 38 1015.7
20260831203330 75 350 1.7 6.1 0.00 0.00 0.00 38 1015.9
20260831202831 76 190 0.9 5.2 0.00 0.00 0.00 38 1015.7
20260831202330 74 221 1.7 5.2 0.00 0.00 0.00 40 1015.9
20260831201832 73 87 1.7 3.5 0.00 0.00 0.00 41 1015.9
20260831201333 75 83 0.9 2.6 0.00 0.00 0.00 40 1016.0
20260831200832 74 37 0.9 2.6 0.00 0.00 0.00 41 1016.1
20260831200330 73 33 0.9 3.5 0.00 0.00 0.00 40 1016.1
20260831195330 73 86 1.7 3.5 0.00 0.00 0.00 42 1016.2
20260831194837 72 336 1.7 3.5 0.00 0.00 0.00 41 1016.2
20260831194331 72 56 1.7 3.5 0.00 0.00 0.00 43 1016.2
20260831193831 73 65 0.9 3.5 0.00 0.00 0.00 43 1016.3
20260831193330 72 40 0.9 2.6 0.00 0.00 0.00 42 1016.4
20260831192830 71 89 1.7 3.5 0.00 0.00 0.00 44 1016.5
20260831192330 71 86 1.7 3.5 0.00 0.00 0.00 43 1016.4
20260831191832 71 88 1.7 3.5 0.00 0.00 0.00 42 1016.6
20260831190831 71 98 1.7 5.2 0.00 0.00 0.00 44 1016.7
20260831190334 71 69 1.7 5.2 0.00 0.00 0.00 42 1016.8
20260831185330 71 109 0.9 3.5 0.00 0.00 0.00 41 1017.1
20260831184334 70 348 1.7 5.2 0.00 0.00 0.00 41 1017.1
20260831183836 71 69 1.7 7.0 0.00 0.00 0.00 40 1017.2
20260831183333 72 201 0.9 7.0 0.00 0.00 0.00 40 1017.4
20260831182833 71 248 0.9 4.3 0.00 0.00 0.00 42 1017.4
20260831182331 71 159 1.7 4.3 0.00 0.00 0.00 41 1017.5
20260831181331 70 154 0.9 4.3 0.00 0.00 0.00 44 1017.5
20260831180834 70 311 1.7 6.1 0.00 0.00 0.00 41 1017.5
20260831180331 70 202 0.9 6.1 0.00 0.00 0.00 41 1017.6
20260831175835 70 281 0.9 3.5 0.00 0.00 0.00 43 1017.6
20260831175331 69 164 1.7 3.5 0.00 0.00 0.00 42 1017.5
20260831174332 69 268 0.9 5.2 0.00 0.00 0.00 42 1017.6
20260831173331 68 227 0.9 3.5 0.00 0.00 0.00 45 1017.7
20260831172835 67 86 0.9 4.3 0.00 0.00 0.00 44 1017.7
20260831172334 67 275 0.9 4.3 0.00 0.00 0.00 43 1017.6
20260831171830 66 184 1.7 7.0 0.00 0.00 0.00 46 1017.7
20260831171330 66 153 1.7 7.0 0.00 0.00 0.00 45 1017.8
20260831170831 65 173 1.7 6.1 0.00 0.00 0.00 45 1017.7
20260831170333 65 222 1.7 6.1 0.00 0.00 0.00 46 1017.8
20260831165831 65 243 1.7 4.3 0.00 0.00 0.00 48 1018.0
20260831165330 65 234 0.9 4.3 0.00 0.00 0.00 48 1018.0
20260831164831 65 47 0.9 3.5 0.00 0.01 0.00 48 1018.0
20260831163832 64 213 0.9 3.5 0.00 0.01 0.00 51 1018.0
20260831163330 64 206 0.9 3.5 0.00 0.01 0.00 50 1018.0
20260831162332 64 215 0.0 2.6 0.00 0.01 0.00 52 1018.1
20260831161839 63 233 0.9 2.6 0.00 0.01 0.00 54 1018.1
20260831161335 62 275 0.9 2.6 0.00 0.01 0.00 53 1018.0
20260831160832 62 238 0.0 2.6 0.00 0.01 0.00 54 1018.1
20260831160330 62 273 0.0 2.6 0.00 0.01 0.00 55 1018.0
20260831155831 61 167 0.0 1.7 0.00 0.01 0.00 58 1018.1
20260831155331 60 217 0.9 2.6 0.00 0.01 0.00 58 1018.1
20260831154830 60 235 0.9 2.6 0.00 0.01 0.00 60 1018.1
20260831154331 60 233 0.0 1.7 0.00 0.02 0.00 60 1018.3
20260831153330 59 225 0.0 1.7 0.00 0.02 0.00 60 1018.4
20260831152832 59 351 0.0 0.9 0.00 0.02 0.00 61 1018.3
20260831152329 58 351 0.0 0.9 0.00 0.02 0.00 61 1018.3
20260831151821 58 154 0.0 3.5 0.00 0.02 0.00 61 1018.1
20260831151315 57 269 0.9 3.5 0.00 0.02 0.00 62 1018.0
20260831150302 56 170 0.0 2.6 0.00 0.02 0.00 66 1018.0
20260831145808 56 238 0.9 3.5 0.00 0.02 0.00 66 1018.0
20260831145306 55 14 0.9 3.5 0.00 0.02 0.00 69 1017.9
20260831144806 55 10 0.0 0.9 0.00 0.02 0.00 78 1018.0
20260831144308 55 355 0.0 0.9 0.00 0.02 0.00 78 1017.9
20260831143809 54 131 0.0 0.9 0.00 0.02 0.00 73 1018.0
20260831143308 54 131 0.0 0.9 0.00 0.02 0.00 74 1018.0
20260831142804 54 131 0.0 0.9 0.00 0.02 0.00 75 1017.9
20260831142306 54 222 0.0 0.9 0.00 0.02 0.00 76 1018.0
20260831141304 54 220 0.0 0.9 0.00 0.02 0.00 79 1017.7
20260831140804 54 44 0.0 0.9 0.00 0.02 0.00 78 1017.7
20260831140305 53 218 0.0 0.0 0.00 0.02 0.00 78 1017.7